Flag for Australia Weather past 2 weeks in Hobart, Tasmania, Australia

Now
43 °F

Clear.


Feels Like: 39 °F
Forecast: 28 / 50 °F
Wind: 7 mph from Northwest

Location: Hobart Airport

Current Time: Jul 23, 2014 at 8:49:51 PM

Latest Report: Jul 23, 2014 at 8:00 PM


Visibility: 10 mi

Pressure: 30.15 "Hg

Humidity: 93%

Dew point: 41 °F

Location of HobartLocation

Historic Weather in Hobart — Graph

°F

Hobart temperature yesterday

Maximum temperature yesterday: 55 °F (at 3:00 PM)
Minimum temperature yesterday: 36 °F (at 5:00 AM)
Average temperature yesterday: 44 °F

Past Weeks' High & Low Weather Summary

 TemperatureHumidityPressure
High61 °F (Jul 11, 1:49 PM)100% (Jul 14, 8:00 PM)30.42 "Hg (Jul 14, 8:00 PM)
Low34 °F (Jul 21, 7:00 AM)39% (Jul 11, 2:00 PM)29.36 "Hg (Jul 17, 1:30 PM)
Average47 °F74%29.97 "Hg
* Reported Jul 8 7:00 PM — Jul 23 7:00 PM, Hobart, Weather by CustomWeather, © 2014

Note: Actual official high and low records may vary slightly from our data, if they occured in-between our weather recording intervals... More about our weather records

Advertising

Hobart weather history for previous 24 hours

 ConditionsComfort  
Time TempWeatherWind HumidityBarometerVisibility
7:00 PM
Jul 23
41 °FClear.5 mph93%30.15 "Hg10 mi
6:00 PM45 °FClear.No wind87%30.15 "Hg10 mi
5:30 PM46 °FClear.3 mph87%30.15 "Hg10 mi
3:30 PM54 °FPassing clouds.7 mph67%30.15 "HgN/A
3:00 PM55 °FPassing clouds.8 mph63%30.12 "HgN/A
2:00 PM57 °FPassing clouds.5 mph51%30.15 "HgN/A
1:30 PM57 °FPassing clouds.5 mph51%30.15 "HgN/A
1:00 PM55 °FPassing clouds.7 mph59%30.18 "HgN/A
12:30 PM55 °FPassing clouds.7 mph63%30.18 "HgN/A
12:00 PM55 °FPassing clouds.8 mph63%30.18 "HgN/A
11:30 AM54 °FPassing clouds.8 mph67%30.21 "HgN/A
11:00 AM52 °FPassing clouds.8 mph72%30.24 "HgN/A
10:30 AM50 °FPassing clouds.7 mph76%30.24 "HgN/A
9:30 AM46 °FSunny.6 mph82%30.24 "Hg10 mi
9:00 AM45 °FSunny.8 mph81%30.24 "Hg10 mi
2:30 AM45 °FClear.5 mph81%30.24 "Hg10 mi
2:00 AM45 °FClear.6 mph87%30.24 "Hg10 mi
1:30 AM45 °FClear.6 mph81%30.21 "Hg10 mi
1:00 AM45 °FClear.6 mph81%30.24 "Hg10 mi
12:30 AM45 °FClear.6 mph81%30.24 "Hg10 mi
12:00 AM45 °FClear.7 mph87%30.24 "Hg10 mi
11:30 PM
Jul 22
45 °FClear.3 mph81%30.24 "Hg10 mi
11:00 PM45 °FClear.7 mph81%30.24 "Hg10 mi
10:30 PM45 °FClear.3 mph81%30.24 "Hg10 mi
10:00 PM45 °FClear.6 mph81%30.24 "Hg10 mi
9:30 PM45 °FClear.5 mph87%30.24 "Hg10 mi
9:00 PM45 °FClear.5 mph81%30.24 "Hg10 mi
8:30 PM45 °FPassing clouds.3 mph87%30.24 "HgN/A
8:00 PM45 °FPassing clouds.2 mph87%30.24 "HgN/A
Weather by CustomWeather, © 2014

See weather overviewHow to use our weather pages